Snow/Ice From: 16-12-2017 16:00 Until: 17-12-2017 16:00 warning for: Snow/Ice Level: Yellow info button

Although rather usual in this region, locally or potentially dangerous phenomena are expected. (such as local winds, summer thunderstorms, rising streams or high waves) Be aware and pay attention to the latest weather updates, especially if you carry out activities exposed to weather or close to a stream or shoreline. 


Meteo18 Weather Cam more information Meteo18 Weather Cam


Thunder radar more information blitzortung!


warning for Snow/Ice more information rain snow radar


Visit our other weather sites:

Template documentation
and downloads

And another site



Weather Underground History page Text

Daily Summary for April 1, 2016 Units:  Metric    English   Both
« Previous Day
Next Day »
Daily Weekly Monthly Yearly Custom
  High: Low: Average:
Temperature: 9.2 °C 3.1 °C 6.3 °C
Dew Point: 5.8 °C 2.3 °C 4.5 °C
Humidity: 95 % 75 % 88 %
Wind Speed: 22.5 km/h 0.0 km/h 4.8 km/h
Wind Gust: 30.6 km/h - -
Wind:- - ENE
Pressure: 1019.9 hPa 1013.8 hPa -
Precipitation: 0.5 mm    
Historical Graphs
 
 
Tabular Data for April 1, 2016
Time Temperature Dew Point Pressure Wind Wind Speed Wind Gust Humidity Rainfall Rate (Hourly)
00:02 5.3 °C 4.3 °C 1013.8 hPa ENE 1.6 km/h 20.9 km/h 93 % 0.0 mm
00:07 5.3 °C 4.4 °C 1013.8 hPa NNE 3.2 km/h 20.9 km/h 94 % 0.0 mm
00:12 5.3 °C 4.4 °C 1013.8 hPa East 4.8 km/h 20.9 km/h 94 % 0.0 mm
00:17 5.3 °C 4.4 °C 1013.8 hPa East 3.2 km/h 17.7 km/h 94 % 0.3 mm
00:22 5.3 °C 4.4 °C 1013.8 hPa NE 11.3 km/h 17.7 km/h 94 % 0.3 mm
00:32 5.4 °C 4.5 °C 1014.1 hPa ENE 16.1 km/h 17.7 km/h 94 % 0.5 mm
00:37 5.4 °C 4.5 °C 1014.1 hPa ESE 6.4 km/h 20.9 km/h 94 % 0.5 mm
00:42 5.4 °C 4.5 °C 1014.1 hPa East 6.4 km/h 20.9 km/h 94 % 0.5 mm
00:52 5.4 °C 4.4 °C 1014.4 hPa SSE 14.5 km/h 20.9 km/h 93 % 0.5 mm
01:02 5.3 °C 4.3 °C 1014.4 hPa NE 19.3 km/h 22.5 km/h 93 % 0.5 mm
01:07 5.3 °C 4.1 °C 1014.4 hPa NE 6.4 km/h 24.1 km/h 92 % 0.5 mm
01:12 5.3 °C 4.1 °C 1014.4 hPa East 9.7 km/h 24.1 km/h 92 % 0.5 mm
01:17 5.3 °C 4.1 °C 1014.4 hPa NE 19.3 km/h 27.4 km/h 92 % 0.5 mm
01:22 5.3 °C 4.1 °C 1014.4 hPa NE 14.5 km/h 30.6 km/h 92 % 0.5 mm
01:32 5.3 °C 4.1 °C 1014.8 hPa ENE 22.5 km/h 30.6 km/h 92 % 0.3 mm
01:37 5.3 °C 4.1 °C 1014.8 hPa NE 12.9 km/h 30.6 km/h 92 % 0.3 mm
01:42 5.3 °C 4.1 °C 1014.8 hPa ENE 9.7 km/h 30.6 km/h 92 % 0.3 mm
01:47 5.3 °C 4.1 °C 1014.8 hPa NE 14.5 km/h 25.7 km/h 92 % 0.0 mm
01:52 5.3 °C 4.1 °C 1014.8 hPa NE 12.9 km/h 25.7 km/h 92 % 0.0 mm
01:57 5.3 °C 4.1 °C 1015.1 hPa East 8.0 km/h 20.9 km/h 92 % 0.0 mm
02:02 5.4 °C 4.0 °C 1015.1 hPa NE 22.5 km/h 22.5 km/h 91 % 0.0 mm
02:07 5.4 °C 4.0 °C 1015.1 hPa East 16.1 km/h 25.7 km/h 91 % 0.0 mm
02:12 5.4 °C 4.0 °C 1014.8 hPa NE 14.5 km/h 25.7 km/h 91 % 0.0 mm
02:17 5.4 °C 4.0 °C 1014.8 hPa East 3.2 km/h 25.7 km/h 91 % 0.0 mm
02:22 5.4 °C 4.0 °C 1014.8 hPa ENE 9.7 km/h 25.7 km/h 91 % 0.0 mm
02:32 5.5 °C 4.1 °C 1014.8 hPa NE 4.8 km/h 24.1 km/h 91 % 0.0 mm
02:37 5.5 °C 4.1 °C 1014.8 hPa East 8.0 km/h 25.7 km/h 91 % 0.0 mm
02:47 5.6 °C 4.2 °C 1015.1 hPa ENE 11.3 km/h 25.7 km/h 91 % 0.0 mm
02:52 5.6 °C 4.2 °C 1015.1 hPa ENE 8.0 km/h 25.7 km/h 91 % 0.0 mm
02:57 5.6 °C 4.2 °C 1015.1 hPa NE 11.3 km/h 25.7 km/h 91 % 0.0 mm
03:02 5.6 °C 4.2 °C 1015.5 hPa ENE 9.7 km/h 24.1 km/h 91 % 0.0 mm
03:07 5.6 °C 4.2 °C 1015.5 hPa East 8.0 km/h 19.3 km/h 91 % 0.0 mm
03:12 5.6 °C 4.2 °C 1015.5 hPa NE 8.0 km/h 19.3 km/h 91 % 0.0 mm
03:17 5.7 °C 4.3 °C 1015.5 hPa NNE 3.2 km/h 17.7 km/h 91 % 0.0 mm
03:22 5.7 °C 4.3 °C 1015.8 hPa NE 12.9 km/h 17.7 km/h 91 % 0.0 mm
03:32 5.8 °C 4.3 °C 1015.5 hPa NW 8.0 km/h 17.7 km/h 90 % 0.0 mm
03:37 5.8 °C 4.3 °C 1015.5 hPa SE 6.4 km/h 24.1 km/h 90 % 0.0 mm
03:42 5.8 °C 4.3 °C 1015.5 hPa NE 6.4 km/h 24.1 km/h 90 % 0.0 mm
03:47 5.8 °C 4.3 °C 1015.8 hPa NNE 11.3 km/h 24.1 km/h 90 % 0.0 mm
03:52 5.8 °C 4.3 °C 1015.8 hPa NE 12.9 km/h 20.9 km/h 90 % 0.0 mm
03:57 5.8 °C 4.3 °C 1015.8 hPa ENE 11.3 km/h 20.9 km/h 90 % 0.0 mm
04:02 5.8 °C 4.4 °C 1015.8 hPa East 6.4 km/h 17.7 km/h 91 % 0.0 mm
04:07 5.8 °C 4.4 °C 1015.8 hPa ENE 1.6 km/h 17.7 km/h 91 % 0.0 mm
04:12 5.8 °C 4.3 °C 1015.8 hPa NE 8.0 km/h 16.1 km/h 90 % 0.0 mm
04:17 5.8 °C 4.3 °C 1015.8 hPa ENE 4.8 km/h 17.7 km/h 90 % 0.0 mm
04:22 5.8 °C 4.3 °C 1015.8 hPa SE 1.6 km/h 17.7 km/h 90 % 0.0 mm
04:27 5.8 °C 4.3 °C 1015.8 hPa NE 9.7 km/h 17.7 km/h 90 % 0.0 mm
04:32 5.8 °C 4.3 °C 1015.8 hPa NE 6.4 km/h 16.1 km/h 90 % 0.0 mm
04:37 5.8 °C 4.3 °C 1016.1 hPa East 6.4 km/h 14.5 km/h 90 % 0.0 mm
04:47 5.8 °C 4.3 °C 1016.1 hPa SSE 3.2 km/h 16.1 km/h 90 % 0.0 mm
04:52 5.8 °C 4.3 °C 1016.1 hPa NNE 9.7 km/h 16.1 km/h 90 % 0.0 mm
04:57 5.7 °C 4.3 °C 1016.1 hPa NE 12.9 km/h 22.5 km/h 91 % 0.0 mm
05:02 5.7 °C 4.3 °C 1016.1 hPa NE 4.8 km/h 22.5 km/h 91 % 0.0 mm
05:07 5.7 °C 4.3 °C 1016.1 hPa NE 11.3 km/h 14.5 km/h 91 % 0.0 mm
05:12 5.7 °C 4.3 °C 1016.5 hPa ESE 11.3 km/h 16.1 km/h 91 % 0.0 mm
05:17 5.7 °C 4.3 °C 1016.5 hPa ENE 4.8 km/h 16.1 km/h 91 % 0.0 mm
05:22 5.7 °C 4.3 °C 1016.5 hPa NNE 3.2 km/h 16.1 km/h 91 % 0.0 mm
05:27 5.7 °C 4.3 °C 1016.8 hPa NE 8.0 km/h 14.5 km/h 91 % 0.0 mm
05:32 5.7 °C 4.3 °C 1016.8 hPa NE 11.3 km/h 14.5 km/h 91 % 0.0 mm
05:37 5.6 °C 4.2 °C 1016.8 hPa ENE 4.8 km/h 11.3 km/h 91 % 0.0 mm
05:42 5.6 °C 4.2 °C 1016.8 hPa NE 9.7 km/h 12.9 km/h 91 % 0.0 mm
05:47 5.6 °C 4.2 °C 1016.8 hPa ENE 8.0 km/h 12.9 km/h 91 % 0.0 mm
05:52 5.6 °C 4.2 °C 1016.8 hPa NNE 12.9 km/h 14.5 km/h 91 % 0.0 mm
05:57 5.5 °C 4.1 °C 1017.2 hPa ENE 8.0 km/h 16.1 km/h 91 % 0.0 mm
06:02 5.4 °C 4.2 °C 1017.2 hPa ENE 3.2 km/h 16.1 km/h 92 % 0.0 mm
06:07 5.4 °C 4.0 °C 1017.2 hPa NE 4.8 km/h 16.1 km/h 91 % 0.0 mm
06:12 5.4 °C 4.2 °C 1017.2 hPa East 3.2 km/h 14.5 km/h 92 % 0.0 mm
06:17 5.4 °C 4.2 °C 1017.2 hPa ENE 4.8 km/h 12.9 km/h 92 % 0.0 mm
06:22 5.3 °C 4.1 °C 1017.2 hPa NE 1.6 km/h 12.9 km/h 92 % 0.0 mm
06:27 5.3 °C 4.1 °C 1017.2 hPa NE 8.0 km/h 12.9 km/h 92 % 0.0 mm
06:32 5.3 °C 4.1 °C 1017.2 hPa ENE 1.6 km/h 11.3 km/h 92 % 0.0 mm
06:37 5.3 °C 4.1 °C 1017.2 hPa NE 3.2 km/h 11.3 km/h 92 % 0.0 mm
06:42 5.3 °C 4.1 °C 1017.2 hPa East 1.6 km/h 9.7 km/h 92 % 0.0 mm
06:47 5.3 °C 4.1 °C 1017.2 hPa ENE 4.8 km/h 9.7 km/h 92 % 0.0 mm
06:57 5.2 °C 4.0 °C 1017.5 hPa NE 9.7 km/h 11.3 km/h 92 % 0.0 mm
07:07 5.2 °C 4.0 °C 1017.5 hPa ENE 6.4 km/h 11.3 km/h 92 % 0.0 mm
07:12 5.2 °C 4.2 °C 1017.5 hPa ENE 3.2 km/h 11.3 km/h 93 % 0.0 mm
07:17 5.2 °C 4.2 °C 1017.5 hPa NE 4.8 km/h 11.3 km/h 93 % 0.0 mm
07:22 5.2 °C 4.0 °C 1017.5 hPa SE 3.2 km/h 11.3 km/h 92 % 0.0 mm
07:27 5.2 °C 4.0 °C 1017.5 hPa NNE 1.6 km/h 14.5 km/h 92 % 0.0 mm
07:32 5.2 °C 4.0 °C 1017.5 hPa ENE 6.4 km/h 14.5 km/h 92 % 0.0 mm
07:37 5.2 °C 4.0 °C 1017.5 hPa ENE 3.2 km/h 14.5 km/h 92 % 0.0 mm
07:42 5.1 °C 4.1 °C 1017.8 hPa NE 8.0 km/h 12.9 km/h 93 % 0.0 mm
07:47 5.1 °C 3.9 °C 1017.8 hPa SE 4.8 km/h 12.9 km/h 92 % 0.0 mm
07:52 5.2 °C 4.0 °C 1017.8 hPa NE 8.0 km/h 12.9 km/h 92 % 0.0 mm
07:57 5.2 °C 4.0 °C 1017.8 hPa NE 4.8 km/h 11.3 km/h 92 % 0.0 mm
08:02 5.1 °C 3.9 °C 1017.8 hPa NNE 6.4 km/h 11.3 km/h 92 % 0.0 mm
08:12 5.0 °C 3.8 °C 1018.2 hPa East 3.2 km/h 11.3 km/h 92 % 0.0 mm
08:17 5.0 °C 4.0 °C 1018.2 hPa ENE 6.4 km/h 11.3 km/h 93 % 0.0 mm
08:27 4.9 °C 3.7 °C 1018.2 hPa NE 8.0 km/h 12.9 km/h 92 % 0.0 mm
08:32 4.9 °C 3.9 °C 1018.2 hPa NNE 9.7 km/h 12.9 km/h 93 % 0.0 mm
08:37 4.9 °C 3.7 °C 1018.2 hPa NNE 9.7 km/h 12.9 km/h 92 % 0.0 mm
08:42 4.9 °C 3.9 °C 1018.2 hPa NE 9.7 km/h 12.9 km/h 93 % 0.0 mm
08:47 4.8 °C 3.8 °C 1018.5 hPa East 8.0 km/h 12.9 km/h 93 % 0.0 mm
08:52 4.8 °C 3.8 °C 1018.5 hPa NE 8.0 km/h 16.1 km/h 93 % 0.0 mm
09:02 4.8 °C 3.6 °C 1018.5 hPa NE 17.7 km/h 17.7 km/h 92 % 0.0 mm
09:12 4.8 °C 3.6 °C 1018.5 hPa NE 8.0 km/h 19.3 km/h 92 % 0.0 mm
09:17 4.9 °C 3.7 °C 1018.5 hPa ENE 3.2 km/h 19.3 km/h 92 % 0.0 mm
09:22 5.0 °C 3.8 °C 1018.5 hPa ENE 3.2 km/h 19.3 km/h 92 % 0.0 mm
09:27 5.1 °C 3.9 °C 1018.5 hPa NE 6.4 km/h 17.7 km/h 92 % 0.0 mm
09:32 5.2 °C 4.0 °C 1018.5 hPa NE 4.8 km/h 12.9 km/h 92 % 0.0 mm
09:42 5.4 °C 4.2 °C 1018.5 hPa East 1.6 km/h 12.9 km/h 92 % 0.0 mm
09:47 5.6 °C 4.4 °C 1018.5 hPa East 1.6 km/h 11.3 km/h 92 % 0.0 mm
09:52 5.7 °C 4.3 °C 1018.5 hPa NE 8.0 km/h 9.7 km/h 91 % 0.0 mm
09:57 5.6 °C 4.1 °C 1018.8 hPa NNE 6.4 km/h 16.1 km/h 90 % 0.0 mm
10:02 5.6 °C 4.2 °C 1018.8 hPa ENE 11.3 km/h 16.1 km/h 91 % 0.0 mm
10:12 5.7 °C 4.3 °C 1018.8 hPa East 1.6 km/h 16.1 km/h 91 % 0.0 mm
10:17 5.7 °C 4.2 °C 1018.8 hPa SE 3.2 km/h 14.5 km/h 90 % 0.0 mm
10:22 5.6 °C 4.2 °C 1018.8 hPa NE 12.9 km/h 16.1 km/h 91 % 0.0 mm
10:32 5.8 °C 4.3 °C 1018.8 hPa ENE 4.8 km/h 19.3 km/h 90 % 0.0 mm
10:42 5.8 °C 4.3 °C 1018.8 hPa NE 11.3 km/h 17.7 km/h 90 % 0.0 mm
10:47 5.9 °C 4.4 °C 1018.8 hPa NE 11.3 km/h 19.3 km/h 90 % 0.0 mm
10:52 5.9 °C 4.4 °C 1019.2 hPa ENE 3.2 km/h 19.3 km/h 90 % 0.0 mm
10:57 6.0 °C 4.5 °C 1019.2 hPa ENE 1.6 km/h 19.3 km/h 90 % 0.0 mm
11:02 6.1 °C 4.4 °C 1019.2 hPa NE 1.6 km/h 16.1 km/h 89 % 0.0 mm
11:07 6.2 °C 4.7 °C 1019.2 hPa NNE 6.4 km/h 16.1 km/h 90 % 0.0 mm
11:17 6.3 °C 4.6 °C 1019.2 hPa NW 3.2 km/h 14.5 km/h 89 % 0.0 mm
11:22 6.5 °C 4.8 °C 1019.5 hPa East 3.2 km/h 14.5 km/h 89 % 0.0 mm
11:27 6.6 °C 4.8 °C 1019.5 hPa ESE 4.8 km/h 16.1 km/h 88 % 0.0 mm
11:32 6.8 °C 5.0 °C 1019.9 hPa ENE 11.3 km/h 16.1 km/h 88 % 0.0 mm
11:37 7.0 °C 5.0 °C 1019.9 hPa NE 8.0 km/h 16.1 km/h 87 % 0.0 mm
11:42 6.9 °C 4.7 °C 1019.9 hPa NNE 12.9 km/h 14.5 km/h 86 % 0.0 mm
11:47 6.9 °C 4.9 °C 1019.9 hPa SE 1.6 km/h 14.5 km/h 87 % 0.0 mm
11:52 6.9 °C 4.9 °C 1019.9 hPa East 1.6 km/h 14.5 km/h 87 % 0.0 mm
12:02 7.1 °C 4.9 °C 1019.9 hPa ENE 9.7 km/h 12.9 km/h 86 % 0.0 mm
12:12 6.9 °C 4.7 °C 1019.9 hPa ENE 4.8 km/h 16.1 km/h 86 % 0.0 mm
12:17 6.9 °C 4.7 °C 1019.9 hPa SSE 4.8 km/h 16.1 km/h 86 % 0.0 mm
12:22 7.0 °C 5.0 °C 1019.9 hPa NE 9.7 km/h 14.5 km/h 87 % 0.0 mm
12:27 6.9 °C 4.7 °C 1019.9 hPa ENE 6.4 km/h 14.5 km/h 86 % 0.0 mm
12:32 7.0 °C 5.0 °C 1019.9 hPa ENE 3.2 km/h 14.5 km/h 87 % 0.0 mm
12:37 7.1 °C 4.9 °C 1019.9 hPa ESE 1.6 km/h 14.5 km/h 86 % 0.0 mm
12:42 7.1 °C 4.7 °C 1019.9 hPa SE 4.8 km/h 14.5 km/h 85 % 0.0 mm
12:47 7.2 °C 5.0 °C 1019.9 hPa NE 6.4 km/h 14.5 km/h 86 % 0.0 mm
12:52 7.1 °C 4.7 °C 1019.9 hPa East 3.2 km/h 12.9 km/h 85 % 0.0 mm
12:57 7.2 °C 4.8 °C 1019.9 hPa Calm   12.9 km/h 85 % 0.0 mm
13:02 7.1 °C 4.6 °C 1019.9 hPa NNE 3.2 km/h 12.9 km/h 84 % 0.0 mm
13:07 7.3 °C 5.1 °C 1019.9 hPa East 4.8 km/h 11.3 km/h 86 % 0.0 mm
13:12 7.4 °C 4.9 °C 1019.9 hPa North 4.8 km/h 12.9 km/h 84 % 0.0 mm
13:17 7.3 °C 4.8 °C 1019.9 hPa NE 8.0 km/h 16.1 km/h 84 % 0.0 mm
13:22 7.4 °C 4.9 °C 1019.9 hPa NE 14.5 km/h 16.1 km/h 84 % 0.0 mm
13:32 7.6 °C 4.9 °C 1019.9 hPa ENE 3.2 km/h 14.5 km/h 83 % 0.0 mm
13:37 7.8 °C 5.4 °C 1019.9 hPa NE 9.7 km/h 14.5 km/h 85 % 0.0 mm
13:42 7.8 °C 4.9 °C 1019.9 hPa Calm   14.5 km/h 82 % 0.0 mm
13:47 7.9 °C 5.4 °C 1019.9 hPa NE 8.0 km/h 12.9 km/h 84 % 0.0 mm
13:52 8.1 °C 5.4 °C 1019.5 hPa NE 4.8 km/h 12.9 km/h 83 % 0.0 mm
14:02 7.9 °C 5.5 °C 1019.9 hPa East 4.8 km/h 12.9 km/h 85 % 0.0 mm
14:12 7.9 °C 5.0 °C 1019.9 hPa Calm   9.7 km/h 82 % 0.0 mm
14:17 8.1 °C 5.6 °C 1019.9 hPa NE 4.8 km/h 9.7 km/h 84 % 0.0 mm
14:22 8.2 °C 5.3 °C 1019.9 hPa East 3.2 km/h 9.7 km/h 82 % 0.0 mm
14:27 8.3 °C 5.6 °C 1019.5 hPa NE 3.2 km/h 9.7 km/h 83 % 0.0 mm
14:32 8.2 °C 5.1 °C 1019.5 hPa NE 6.4 km/h 12.9 km/h 81 % 0.0 mm
14:37 8.0 °C 4.9 °C 1019.5 hPa ENE 4.8 km/h 12.9 km/h 81 % 0.0 mm
14:42 8.1 °C 5.2 °C 1019.5 hPa NE 4.8 km/h 12.9 km/h 82 % 0.0 mm
14:47 8.2 °C 5.3 °C 1019.5 hPa NE 6.4 km/h 12.9 km/h 82 % 0.0 mm
14:52 8.3 °C 5.2 °C 1019.5 hPa Calm   9.7 km/h 81 % 0.0 mm
14:57 8.4 °C 5.5 °C 1019.2 hPa Calm   9.7 km/h 82 % 0.0 mm
15:02 8.6 °C 5.5 °C 1019.5 hPa NE 3.2 km/h 11.3 km/h 81 % 0.0 mm
15:07 8.6 °C 5.3 °C 1019.5 hPa SSE 3.2 km/h 14.5 km/h 80 % 0.0 mm
15:12 8.7 °C 5.8 °C 1019.2 hPa NE 1.6 km/h 14.5 km/h 82 % 0.0 mm
15:17 8.7 °C 5.6 °C 1019.2 hPa Calm   14.5 km/h 81 % 0.0 mm
15:22 8.8 °C 5.5 °C 1019.2 hPa SE 4.8 km/h 11.3 km/h 80 % 0.0 mm
15:32 8.4 °C 5.2 °C 1019.2 hPa Calm   14.5 km/h 80 % 0.0 mm
15:37 8.4 °C 5.2 °C 1018.8 hPa Calm   14.5 km/h 80 % 0.0 mm
15:42 8.3 °C 5.1 °C 1018.8 hPa ENE 9.7 km/h 16.1 km/h 80 % 0.0 mm
15:47 8.4 °C 5.2 °C 1018.8 hPa ENE 6.4 km/h 16.1 km/h 80 % 0.0 mm
15:52 8.4 °C 5.3 °C 1019.2 hPa ENE 4.8 km/h 16.1 km/h 81 % 0.0 mm
16:02 8.4 °C 5.2 °C 1019.2 hPa ENE 4.8 km/h 12.9 km/h 80 % 0.0 mm
16:07 8.4 °C 5.0 °C 1019.2 hPa ENE 4.8 km/h 12.9 km/h 79 % 0.0 mm
16:12 8.4 °C 5.2 °C 1019.2 hPa ENE 3.2 km/h 12.9 km/h 80 % 0.0 mm
16:17 8.4 °C 5.2 °C 1019.2 hPa NE 1.6 km/h 12.9 km/h 80 % 0.0 mm
16:22 8.4 °C 5.0 °C 1019.2 hPa NE 3.2 km/h 11.3 km/h 79 % 0.0 mm
16:32 8.6 °C 4.8 °C 1018.8 hPa Calm   12.9 km/h 77 % 0.0 mm
16:37 8.6 °C 4.6 °C 1018.8 hPa ENE 1.6 km/h 9.7 km/h 76 % 0.0 mm
16:42 8.5 °C 4.3 °C 1018.8 hPa NNE 1.6 km/h 9.7 km/h 75 % 0.0 mm
16:47 8.5 °C 4.5 °C 1018.8 hPa NE 3.2 km/h 11.3 km/h 76 % 0.0 mm
16:52 8.5 °C 5.2 °C 1018.8 hPa Calm   11.3 km/h 80 % 0.0 mm
16:57 8.6 °C 5.5 °C 1018.8 hPa Calm   8.0 km/h 81 % 0.0 mm
17:02 8.6 °C 5.3 °C 1018.8 hPa Calm   8.0 km/h 80 % 0.0 mm
17:07 8.7 °C 5.4 °C 1018.8 hPa SSW 1.6 km/h 1.6 km/h 80 % 0.0 mm
17:12 8.7 °C 5.1 °C 1018.8 hPa Calm   1.6 km/h 78 % 0.0 mm
17:17 8.8 °C 5.4 °C 1018.8 hPa Calm   1.6 km/h 79 % 0.0 mm
17:37 9.2 °C 5.4 °C 1018.8 hPa Calm   4.8 km/h 77 % 0.0 mm
17:47 8.9 °C 5.1 °C 1018.5 hPa Calm   1.6 km/h 77 % 0.0 mm
17:52 8.8 °C 5.2 °C 1018.8 hPa Calm   1.6 km/h 78 % 0.0 mm
18:02 8.6 °C 5.3 °C 1018.5 hPa Calm   3.2 km/h 80 % 0.0 mm
18:12 8.4 °C 5.0 °C 1018.2 hPa Calm   1.6 km/h 79 % 0.0 mm
18:17 8.4 °C 5.2 °C 1018.5 hPa Calm   1.6 km/h 80 % 0.0 mm
18:22 8.3 °C 5.2 °C 1018.5 hPa Calm   3.2 km/h 81 % 0.0 mm
18:27 8.2 °C 5.0 °C 1018.5 hPa Calm   1.6 km/h 80 % 0.0 mm
18:32 8.2 °C 5.1 °C 1018.5 hPa Calm   1.6 km/h 81 % 0.0 mm
18:37 8.1 °C 5.0 °C 1018.5 hPa Calm   1.6 km/h 81 % 0.0 mm
18:42 8.1 °C 5.2 °C 1018.5 hPa Calm   1.6 km/h 82 % 0.0 mm
18:47 8.0 °C 5.1 °C 1018.5 hPa Calm   1.6 km/h 82 % 0.0 mm
18:52 7.9 °C 5.2 °C 1018.5 hPa Calm   1.6 km/h 83 % 0.0 mm
19:02 7.8 °C 5.1 °C 1018.5 hPa Calm   1.6 km/h 83 % 0.0 mm
19:12 7.7 °C 5.0 °C 1018.5 hPa Calm   1.6 km/h 83 % 0.0 mm
19:17 7.7 °C 5.0 °C 1018.8 hPa Calm   1.6 km/h 83 % 0.0 mm
19:22 7.7 °C 5.0 °C 1018.5 hPa Calm   1.6 km/h 83 % 0.0 mm
19:27 7.7 °C 5.2 °C 1018.5 hPa Calm     84 % 0.0 mm
19:32 7.6 °C 5.1 °C 1018.8 hPa Calm     84 % 0.0 mm
19:42 7.4 °C 5.0 °C 1018.8 hPa Calm   1.6 km/h 85 % 0.0 mm
19:47 7.4 °C 5.0 °C 1018.8 hPa Calm   1.6 km/h 85 % 0.0 mm
19:52 7.3 °C 4.9 °C 1018.8 hPa Calm   1.6 km/h 85 % 0.0 mm
19:57 7.3 °C 5.1 °C 1018.8 hPa Calm   1.6 km/h 86 % 0.0 mm
20:02 7.2 °C 5.0 °C 1018.5 hPa Calm     86 % 0.0 mm
20:12 7.1 °C 4.9 °C 1018.5 hPa Calm   1.6 km/h 86 % 0.0 mm
20:17 7.1 °C 5.1 °C 1018.8 hPa Calm   1.6 km/h 87 % 0.0 mm
20:22 7.1 °C 5.1 °C 1018.5 hPa Calm     87 % 0.0 mm
20:27 7.0 °C 5.1 °C 1018.5 hPa Calm     88 % 0.0 mm
20:32 6.9 °C 5.1 °C 1018.8 hPa Calm   1.6 km/h 88 % 0.0 mm
20:47 6.8 °C 5.1 °C 1018.5 hPa Calm   1.6 km/h 89 % 0.0 mm
20:57 6.7 °C 5.0 °C 1018.5 hPa Calm   1.6 km/h 89 % 0.0 mm
21:02 6.7 °C 5.0 °C 1018.2 hPa Calm   1.6 km/h 89 % 0.0 mm
21:07 6.7 °C 5.0 °C 1018.2 hPa Calm   1.6 km/h 89 % 0.0 mm
21:12 6.6 °C 4.9 °C 1018.2 hPa Calm   1.6 km/h 89 % 0.0 mm
21:17 6.7 °C 4.9 °C 1018.5 hPa Calm   1.6 km/h 88 % 0.0 mm
21:22 6.7 °C 4.9 °C 1018.5 hPa Calm     88 % 0.0 mm
21:32 6.7 °C 4.9 °C 1018.5 hPa Calm   1.6 km/h 88 % 0.0 mm
21:37 6.5 °C 4.7 °C 1018.5 hPa Calm   1.6 km/h 88 % 0.0 mm
21:42 6.2 °C 4.4 °C 1018.5 hPa Calm   1.6 km/h 88 % 0.0 mm
21:47 5.9 °C 4.2 °C 1018.8 hPa Calm     89 % 0.0 mm
21:57 5.3 °C 3.8 °C 1018.8 hPa Calm     90 % 0.0 mm
22:02 5.0 °C 3.5 °C 1018.8 hPa Calm     90 % 0.0 mm
22:12 4.7 °C 3.5 °C 1018.8 hPa Calm     92 % 0.0 mm
22:17 4.6 °C 3.4 °C 1018.5 hPa Calm     92 % 0.0 mm
22:22 4.5 °C 3.3 °C 1018.5 hPa Calm     92 % 0.0 mm
22:27 4.4 °C 3.4 °C 1018.5 hPa Calm   1.6 km/h 93 % 0.0 mm
22:32 4.2 °C 3.2 °C 1018.5 hPa Calm   1.6 km/h 93 % 0.0 mm
22:37 4.1 °C 3.1 °C 1018.5 hPa Calm   1.6 km/h 93 % 0.0 mm
22:42 4.0 °C 3.1 °C 1018.2 hPa Calm   1.6 km/h 94 % 0.0 mm
22:47 3.9 °C 3.0 °C 1018.2 hPa Calm   1.6 km/h 94 % 0.0 mm
22:52 3.8 °C 2.9 °C 1018.2 hPa Calm   1.6 km/h 94 % 0.0 mm
23:02 3.7 °C 2.8 °C 1018.5 hPa Calm     94 % 0.0 mm
23:12 3.8 °C 3.1 °C 1018.5 hPa Calm     95 % 0.0 mm
23:17 3.8 °C 3.1 °C 1018.5 hPa Calm     95 % 0.0 mm
23:22 3.7 °C 2.8 °C 1018.5 hPa Calm     94 % 0.0 mm
23:27 3.8 °C 3.1 °C 1018.5 hPa Calm     95 % 0.0 mm
23:32 3.7 °C 2.8 °C 1018.5 hPa Calm     94 % 0.0 mm
23:42 3.6 °C 2.9 °C 1018.5 hPa Calm     95 % 0.0 mm
23:52 3.2 °C 2.3 °C 1018.5 hPa Calm     94 % 0.0 mm
23:57 3.1 °C 2.4 °C 1018.5 hPa Calm     95 % 0.0 mm
Meteo18
Compliments of Weather Underground - 4 mb

Script developed by  Jim McMurry - jmcmurry@mwt.net Adapted for the template by  Wim van der Kuil - Leuven-Template.eu

You find our weather info also at:

European Weather Network

Weather Underground

Equipment we use:

Weather-station
Davis Vue

Weather-program
Meteohub

Weather-server
Raspberry PI 2 B+

Provider
1 and 1

Davis Vue

Meteohub

Raspberry PI 2 B+

1 and 1